Time,TemperatureF,DewpointF,PressureIn,WindDirection,WindDirectionDegrees,WindSpeedMPH,WindSpeedGustMPH,Humidity,HourlyPrecipIn,Conditions,Clouds,dailyrainin,SoftwareType,DateUTC
2013-09-28 00:04:00,81.5,75.8,29.93,East,86,11.0,16.0,83,0.00,,,0.00,Wunderground v.1.15,2013-09-28 05:04:00,
2013-09-28 00:09:00,81.6,75.6,29.93,SE,130,12.0,16.0,82,0.00,,,0.00,Wunderground v.1.15,2013-09-28 05:09:00,
2013-09-28 00:14:00,81.6,75.6,29.93,East,86,12.0,13.0,82,0.00,,,0.00,Wunderground v.1.15,2013-09-28 05:14:00,
2013-09-28 00:19:00,81.6,75.9,29.93,East,82,11.0,14.0,83,0.00,,,0.00,Wunderground v.1.15,2013-09-28 05:19:00,
2013-09-28 00:24:00,81.6,75.9,29.93,ESE,113,11.0,15.0,83,0.00,,,0.00,Wunderground v.1.15,2013-09-28 05:24:00,
2013-09-28 00:30:00,81.6,75.6,29.93,ENE,77,12.0,14.0,82,0.00,,,0.00,Wunderground v.1.15,2013-09-28 05:30:00,
2013-09-28 00:37:00,81.6,75.6,29.93,SE,139,11.0,14.0,82,0.00,,,0.00,Wunderground v.1.15,2013-09-28 05:37:00,
2013-09-28 00:42:00,81.6,75.9,29.93,East,91,11.0,12.0,83,0.00,,,0.00,Wunderground v.1.15,2013-09-28 05:42:00,
2013-09-28 00:47:00,81.6,75.9,29.93,SE,143,11.0,14.0,83,0.00,,,0.00,Wunderground v.1.15,2013-09-28 05:47:00,
2013-09-28 00:52:00,81.6,75.6,29.93,East,82,11.0,14.0,82,0.00,,,0.00,Wunderground v.1.15,2013-09-28 05:52:00,
2013-09-28 00:58:00,81.6,76.3,29.93,ESE,120,11.0,14.0,84,0.00,,,0.00,Wunderground v.1.15,2013-09-28 05:58:00,
2013-09-28 01:05:00,81.5,75.5,29.93,NE,47,12.0,20.0,82,0.00,,,0.00,Wunderground v.1.15,2013-09-28 06:05:00,
2013-09-28 01:10:00,81.6,75.9,29.93,ESE,112,12.0,20.0,83,0.00,,,0.00,Wunderground v.1.15,2013-09-28 06:10:00,
2013-09-28 01:15:00,81.6,75.9,29.93,East,82,12.0,20.0,83,0.00,,,0.00,Wunderground v.1.15,2013-09-28 06:15:00,
2013-09-28 01:20:00,81.6,75.9,29.93,ESE,118,12.0,20.0,83,0.00,,,0.00,Wunderground v.1.15,2013-09-28 06:20:00,
2013-09-28 01:26:00,81.6,75.9,29.93,ESE,104,12.0,20.0,83,0.00,,,0.00,Wunderground v.1.15,2013-09-28 06:26:00,
2013-09-28 01:33:00,81.6,75.6,29.93,SE,146,12.0,20.0,82,0.00,,,0.00,Wunderground v.1.15,2013-09-28 06:33:00,
2013-09-28 01:40:00,81.6,75.9,29.93,SSE,160,11.0,20.0,83,0.00,,,0.00,Wunderground v.1.15,2013-09-28 06:40:00,
2013-09-28 01:47:00,81.6,76.3,29.93,East,87,10.0,20.0,84,0.00,,,0.00,Wunderground v.1.15,2013-09-28 06:47:00,
2013-09-28 01:52:00,81.5,76.2,29.93,ESE,116,10.0,20.0,84,0.00,,,0.00,Wunderground v.1.15,2013-09-28 06:52:00,
2013-09-28 01:57:00,81.5,75.8,29.93,ESE,102,10.0,20.0,83,0.00,,,0.00,Wunderground v.1.15,2013-09-28 06:57:00,
2013-09-28 02:02:00,81.4,75.7,29.93,ESE,119,10.0,20.0,83,0.00,,,0.00,Wunderground v.1.15,2013-09-28 07:02:00,
2013-09-28 02:08:00,81.5,75.5,29.92,East,88,11.0,20.0,82,0.00,,,0.00,Wunderground v.1.15,2013-09-28 07:08:00,
2013-09-28 02:13:00,81.6,76.3,29.93,SE,143,12.0,20.0,84,0.00,,,0.00,Wunderground v.1.15,2013-09-28 07:13:00,
2013-09-28 02:18:00,81.5,76.2,29.93,ESE,103,11.0,20.0,84,0.00,,,0.00,Wunderground v.1.15,2013-09-28 07:18:00,
2013-09-28 02:23:00,81.4,75.7,29.93,SE,124,10.0,20.0,83,0.00,,,0.00,Wunderground v.1.15,2013-09-28 07:23:00,
2013-09-28 02:28:00,81.5,76.2,29.93,ENE,76,10.0,20.0,84,0.00,,,0.00,Wunderground v.1.15,2013-09-28 07:28:00,
2013-09-28 02:33:00,81.5,76.2,29.93,East,84,10.0,20.0,84,0.00,,,0.00,Wunderground v.1.15,2013-09-28 07:33:00,
2013-09-28 02:38:00,81.5,76.2,29.93,ENE,57,10.0,20.0,84,0.00,,,0.00,Wunderground v.1.15,2013-09-28 07:38:00,
2013-09-28 02:43:00,81.5,75.8,29.93,East,91,10.0,20.0,83,0.00,,,0.00,Wunderground v.1.15,2013-09-28 07:43:00,
2013-09-28 02:48:00,81.4,75.7,29.92,ESE,113,10.0,20.0,83,0.00,,,0.00,Wunderground v.1.15,2013-09-28 07:48:00,
2013-09-28 02:53:00,81.4,76.1,29.92,SE,134,10.0,20.0,84,0.00,,,0.00,Wunderground v.1.15,2013-09-28 07:53:00,
2013-09-28 02:58:00,81.4,75.7,29.92,East,93,11.0,20.0,83,0.00,,,0.00,Wunderground v.1.15,2013-09-28 07:58:00,
2013-09-28 03:04:00,81.4,75.7,29.92,South,175,11.0,20.0,83,0.00,,,0.00,Wunderground v.1.15,2013-09-28 08:04:00,
2013-09-28 03:10:00,81.4,75.7,29.92,SE,130,12.0,20.0,83,0.00,,,0.00,Wunderground v.1.15,2013-09-28 08:10:00,
2013-09-28 03:18:00,81.4,75.7,29.92,SE,130,12.0,20.0,83,0.00,,,0.00,Wunderground v.1.15,2013-09-28 08:18:00,
2013-09-28 03:25:00,81.4,76.1,29.92,ESE,117,11.0,20.0,84,0.00,,,0.00,Wunderground v.1.15,2013-09-28 08:25:00,
2013-09-28 03:32:00,81.3,76.0,29.92,ESE,107,10.0,20.0,84,0.00,,,0.00,Wunderground v.1.15,2013-09-28 08:32:00,
2013-09-28 03:39:00,81.3,76.0,29.92,ESE,114,11.0,20.0,84,0.00,,,0.00,Wunderground v.1.15,2013-09-28 08:39:00,
2013-09-28 03:44:00,81.4,76.1,29.91,East,99,11.0,20.0,84,0.00,,,0.00,Wunderground v.1.15,2013-09-28 08:44:00,
2013-09-28 03:49:00,81.3,76.0,29.91,ESE,115,10.0,20.0,84,0.00,,,0.00,Wunderground v.1.15,2013-09-28 08:49:00,
2013-09-28 03:54:00,81.2,76.3,29.91,East,101,9.0,20.0,85,0.00,,,0.00,Wunderground v.1.15,2013-09-28 08:54:00,
2013-09-28 03:59:00,81.1,76.2,29.91,SSE,154,8.0,20.0,85,0.00,,,0.00,Wunderground v.1.15,2013-09-28 08:59:00,
2013-09-28 04:05:00,81.2,76.3,29.91,ESE,104,9.0,20.0,85,0.00,,,0.00,Wunderground v.1.15,2013-09-28 09:05:00,
2013-09-28 04:14:00,81.2,76.3,29.91,SSE,156,9.0,20.0,85,0.00,,,0.00,Wunderground v.1.15,2013-09-28 09:14:00,
2013-09-28 04:21:00,81.1,76.2,29.91,SSE,162,8.0,20.0,85,0.00,,,0.00,Wunderground v.1.15,2013-09-28 09:21:00,
2013-09-28 04:26:00,81.1,76.5,29.91,SSE,154,8.0,20.0,86,0.00,,,0.00,Wunderground v.1.15,2013-09-28 09:26:00,
2013-09-28 04:35:00,81.2,76.6,29.92,ESE,103,8.0,20.0,86,0.00,,,0.00,Wunderground v.1.15,2013-09-28 09:35:00,
2013-09-28 04:42:00,81.1,76.2,29.92,SE,141,8.0,20.0,85,0.00,,,0.00,Wunderground v.1.15,2013-09-28 09:42:00,
2013-09-28 04:49:00,81.2,76.6,29.92,ENE,74,8.0,20.0,86,0.00,,,0.00,Wunderground v.1.15,2013-09-28 09:49:00,
2013-09-28 04:56:00,81.2,76.6,29.92,SSE,150,8.0,20.0,86,0.00,,,0.00,Wunderground v.1.15,2013-09-28 09:56:00,
2013-09-28 05:03:00,81.1,76.5,29.92,ESE,117,7.0,20.0,86,0.00,,,0.00,Wunderground v.1.15,2013-09-28 10:03:00,
2013-09-28 05:10:00,81.2,76.6,29.92,SE,136,7.0,7.0,86,0.00,,,0.00,Wunderground v.1.15,2013-09-28 10:10:00,
2013-09-28 05:17:00,81.1,76.2,29.92,SSE,147,7.0,20.0,85,0.00,,,0.00,Wunderground v.1.15,2013-09-28 10:17:00,
2013-09-28 05:24:00,81.2,76.6,29.92,SE,129,8.0,20.0,86,0.00,,,0.00,Wunderground v.1.15,2013-09-28 10:24:00,
2013-09-28 05:31:00,81.2,76.3,29.92,ESE,117,8.0,20.0,85,0.00,,,0.00,Wunderground v.1.15,2013-09-28 10:31:00,
2013-09-28 05:38:00,81.2,76.6,29.92,SE,128,8.0,20.0,86,0.00,,,0.00,Wunderground v.1.15,2013-09-28 10:38:00,
2013-09-28 05:45:00,81.3,76.7,29.92,ESE,121,9.0,20.0,86,0.00,,,0.00,Wunderground v.1.15,2013-09-28 10:45:00,
2013-09-28 05:52:00,81.2,76.6,29.93,SSE,166,8.0,20.0,86,0.00,,,0.00,Wunderground v.1.15,2013-09-28 10:52:00,
2013-09-28 05:59:00,81.2,76.6,29.93,NE,49,7.0,20.0,86,0.00,,,0.00,Wunderground v.1.15,2013-09-28 10:59:00,
2013-09-28 06:06:00,81.2,76.6,29.93,South,172,8.0,20.0,86,0.00,,,0.00,Wunderground v.1.15,2013-09-28 11:06:00,
2013-09-28 06:13:00,81.2,76.6,29.93,SE,144,7.0,20.0,86,0.00,,,0.00,Wunderground v.1.15,2013-09-28 11:13:00,
2013-09-28 06:18:00,81.2,76.6,29.94,SE,145,7.0,20.0,86,0.00,,,0.00,Wunderground v.1.15,2013-09-28 11:18:00,
2013-09-28 06:23:00,81.3,76.7,29.94,South,188,8.0,20.0,86,0.00,,,0.00,Wunderground v.1.15,2013-09-28 11:23:00,
2013-09-28 06:28:00,81.3,76.7,29.94,SE,124,7.0,20.0,86,0.00,,,0.00,Wunderground v.1.15,2013-09-28 11:28:00,
2013-09-28 06:34:00,81.3,76.7,29.94,South,181,7.0,20.0,86,0.00,,,0.00,Wunderground v.1.15,2013-09-28 11:34:00,
2013-09-28 06:41:00,81.2,76.6,29.94,SSE,147,6.0,20.0,86,0.00,,,0.00,Wunderground v.1.15,2013-09-28 11:41:00,
2013-09-28 06:47:00,81.3,76.7,29.94,ENE,72,7.0,20.0,86,0.00,,,0.00,Wunderground v.1.15,2013-09-28 11:47:00,
2013-09-28 06:55:00,81.2,76.6,29.94,ESE,105,6.0,20.0,86,0.00,,,0.00,Wunderground v.1.15,2013-09-28 11:55:00,
2013-09-28 07:02:00,81.2,76.6,29.94,SE,128,7.0,20.0,86,0.00,,,0.00,Wunderground v.1.15,2013-09-28 12:02:00,
2013-09-28 07:07:00,81.3,76.4,29.94,ESE,120,7.0,20.0,85,0.00,,,0.00,Wunderground v.1.15,2013-09-28 12:07:00,
2013-09-28 07:16:00,81.3,76.7,29.95,SE,128,7.0,20.0,86,0.00,,,0.00,Wunderground v.1.15,2013-09-28 12:16:00,
2013-09-28 07:21:00,81.3,76.7,29.95,SE,124,7.0,20.0,86,0.00,,,0.00,Wunderground v.1.15,2013-09-28 12:21:00,
2013-09-28 07:30:00,81.4,76.5,29.95,East,84,8.0,20.0,85,0.00,,,0.00,Wunderground v.1.15,2013-09-28 12:30:00,
2013-09-28 07:37:00,81.6,76.6,29.95,ESE,117,7.0,20.0,85,0.00,,,0.00,Wunderground v.1.15,2013-09-28 12:37:00,
2013-09-28 07:43:00,81.7,76.7,29.95,SE,133,7.0,20.0,85,0.00,,,0.00,Wunderground v.1.15,2013-09-28 12:43:00,
2013-09-28 07:51:00,81.7,76.7,29.95,East,99,8.0,20.0,85,0.00,,,0.00,Wunderground v.1.15,2013-09-28 12:51:00,
2013-09-28 07:58:00,81.9,76.9,29.96,SSE,152,8.0,20.0,85,0.00,,,0.00,Wunderground v.1.15,2013-09-28 12:58:00,
2013-09-28 08:05:00,82.3,77.3,29.96,SE,128,8.0,20.0,85,0.00,,,0.00,Wunderground v.1.15,2013-09-28 13:05:00,
2013-09-28 08:11:00,82.5,77.2,29.96,ESE,103,7.0,20.0,84,0.00,,,0.00,Wunderground v.1.15,2013-09-28 13:11:00,
2013-09-28 08:18:00,82.6,76.9,29.97,ESE,122,7.0,20.0,83,0.00,,,0.00,Wunderground v.1.15,2013-09-28 13:18:00,
2013-09-28 08:24:00,82.8,77.1,29.97,SSE,164,8.0,20.0,83,0.00,,,0.00,Wunderground v.1.15,2013-09-28 13:24:00,
2013-09-28 08:32:00,82.9,76.8,29.97,SE,136,8.0,20.0,82,0.00,,,0.00,Wunderground v.1.15,2013-09-28 13:32:00,
2013-09-28 08:38:00,83.1,77.4,29.97,ESE,110,9.0,20.0,83,0.00,,,0.00,Wunderground v.1.15,2013-09-28 13:38:00,
2013-09-28 08:46:00,83.2,77.5,29.97,SE,144,9.0,20.0,83,0.00,,,0.00,Wunderground v.1.15,2013-09-28 13:46:00,
2013-09-28 08:53:00,83.2,77.1,29.98,SSE,153,10.0,20.0,82,0.00,,,0.00,Wunderground v.1.15,2013-09-28 13:53:00,
2013-09-28 09:01:00,83.0,76.6,29.98,SE,135,8.0,20.0,81,0.00,,,0.00,Wunderground v.1.15,2013-09-28 14:01:00,
2013-09-28 09:08:00,83.3,76.9,29.98,SE,139,8.0,20.0,81,0.00,,,0.00,Wunderground v.1.15,2013-09-28 14:08:00,
2013-09-28 09:15:00,83.4,76.6,29.98,ENE,61,8.0,20.0,80,0.00,,,0.00,Wunderground v.1.15,2013-09-28 14:15:00,
2013-09-28 09:22:00,83.4,77.0,29.98,SSE,154,9.0,20.0,81,0.00,,,0.00,Wunderground v.1.15,2013-09-28 14:22:00,
2013-09-28 09:28:00,83.4,77.0,29.98,ESE,121,9.0,20.0,81,0.00,,,0.00,Wunderground v.1.15,2013-09-28 14:28:00,
2013-09-28 09:33:00,83.4,77.0,29.98,SE,134,10.0,20.0,81,0.00,,,0.00,Wunderground v.1.15,2013-09-28 14:33:00,
2013-09-28 09:38:00,83.3,76.9,29.98,East,95,10.0,20.0,81,0.00,,,0.00,Wunderground v.1.15,2013-09-28 14:38:00,
2013-09-28 09:44:00,83.0,76.6,29.99,ESE,110,10.0,20.0,81,0.00,,,0.00,Wunderground v.1.15,2013-09-28 14:44:00,
2013-09-28 09:49:00,83.0,76.9,29.98,SE,131,9.0,20.0,82,0.00,,,0.00,Wunderground v.1.15,2013-09-28 14:49:00,
2013-09-28 09:55:00,82.9,76.8,29.99,SSE,156,9.0,20.0,82,0.00,,,0.00,Wunderground v.1.15,2013-09-28 14:55:00,
2013-09-28 10:00:00,82.8,76.7,29.99,ENE,66,10.0,20.0,82,0.00,,,0.00,Wunderground v.1.15,2013-09-28 15:00:00,
2013-09-28 10:05:00,83.0,76.9,30.00,East,99,9.0,20.0,82,0.00,,,0.00,Wunderground v.1.15,2013-09-28 15:05:00,
2013-09-28 10:10:00,83.1,77.0,29.99,SSE,149,9.0,9.0,82,0.00,,,0.00,Wunderground v.1.15,2013-09-28 15:10:00,
2013-09-28 10:15:00,83.0,76.9,30.00,South,170,9.0,20.0,82,0.00,,,0.00,Wunderground v.1.15,2013-09-28 15:15:00,
2013-09-28 10:20:00,83.0,76.9,30.00,SSE,147,10.0,20.0,82,0.00,,,0.00,Wunderground v.1.15,2013-09-28 15:20:00,
2013-09-28 10:25:00,82.8,76.4,30.00,SE,128,10.0,20.0,81,0.00,,,0.00,Wunderground v.1.15,2013-09-28 15:25:00,
2013-09-28 10:30:00,82.9,77.2,30.00,SE,124,9.0,20.0,83,0.00,,,0.00,Wunderground v.1.15,2013-09-28 15:30:00,
2013-09-28 10:36:00,82.9,76.8,30.00,SSE,149,9.0,20.0,82,0.00,,,0.00,Wunderground v.1.15,2013-09-28 15:36:00,
2013-09-28 10:41:00,82.9,77.2,29.99,SE,135,9.0,20.0,83,0.00,,,0.00,Wunderground v.1.15,2013-09-28 15:41:00,
2013-09-28 10:46:00,83.0,77.3,29.99,SE,131,9.0,20.0,83,0.00,,,0.00,Wunderground v.1.15,2013-09-28 15:46:00,
2013-09-28 10:51:00,83.3,77.2,29.99,ESE,120,10.0,20.0,82,0.00,,,0.00,Wunderground v.1.15,2013-09-28 15:51:00,
2013-09-28 10:56:00,83.3,76.9,29.99,ESE,114,10.0,20.0,81,0.00,,,0.00,Wunderground v.1.15,2013-09-28 15:56:00,
2013-09-28 11:02:00,83.3,76.9,30.00,ESE,102,11.0,20.0,81,0.00,,,0.00,Wunderground v.1.15,2013-09-28 16:02:00,
2013-09-28 11:07:00,83.2,77.1,30.00,East,97,11.0,20.0,82,0.00,,,0.00,Wunderground v.1.15,2013-09-28 16:07:00,
2013-09-28 11:12:00,83.2,76.8,29.99,SSW,193,11.0,20.0,81,0.00,,,0.00,Wunderground v.1.15,2013-09-28 16:12:00,
2013-09-28 11:17:00,83.4,77.0,29.99,SSE,149,12.0,20.0,81,0.00,,,0.00,Wunderground v.1.15,2013-09-28 16:17:00,
2013-09-28 11:22:00,83.6,76.8,29.99,ENE,77,11.0,20.0,80,0.00,,,0.00,Wunderground v.1.15,2013-09-28 16:22:00,
2013-09-28 11:28:00,83.6,77.1,30.00,ESE,105,11.0,20.0,81,0.00,,,0.00,Wunderground v.1.15,2013-09-28 16:28:00,
2013-09-28 11:33:00,83.6,77.1,30.00,SSE,153,12.0,20.0,81,0.00,,,0.00,Wunderground v.1.15,2013-09-28 16:33:00,
2013-09-28 11:38:00,83.5,76.7,30.00,ESE,113,12.0,20.0,80,0.00,,,0.00,Wunderground v.1.15,2013-09-28 16:38:00,
2013-09-28 11:43:00,83.4,77.0,29.99,East,88,11.0,20.0,81,0.00,,,0.00,Wunderground v.1.15,2013-09-28 16:43:00,
2013-09-28 11:48:00,83.6,76.8,29.99,ENE,76,12.0,20.0,80,0.00,,,0.00,Wunderground v.1.15,2013-09-28 16:48:00,
2013-09-28 11:54:00,83.7,77.2,29.99,ENE,76,12.0,20.0,81,0.00,,,0.00,Wunderground v.1.15,2013-09-28 16:54:00,
2013-09-28 11:59:00,83.6,76.8,29.99,SE,139,12.0,20.0,80,0.00,,,0.00,Wunderground v.1.15,2013-09-28 16:59:00,
2013-09-28 12:04:00,83.6,77.1,29.99,ENE,64,11.0,20.0,81,0.00,,,0.00,Wunderground v.1.15,2013-09-28 17:04:00,
2013-09-28 12:09:00,83.6,77.1,29.99,SE,127,11.0,20.0,81,0.00,,,0.00,Wunderground v.1.15,2013-09-28 17:09:00,
2013-09-28 12:14:00,83.4,77.0,29.99,SE,139,11.0,20.0,81,0.00,,,0.00,Wunderground v.1.15,2013-09-28 17:14:00,
2013-09-28 12:20:00,83.3,76.5,29.99,NNE,33,11.0,20.0,80,0.00,,,0.00,Wunderground v.1.15,2013-09-28 17:20:00,
2013-09-28 12:25:00,83.4,77.3,29.99,ESE,111,10.0,20.0,82,0.00,,,0.00,Wunderground v.1.15,2013-09-28 17:25:00,
2013-09-28 12:30:00,83.6,77.1,29.99,ESE,121,10.0,20.0,81,0.00,,,0.00,Wunderground v.1.15,2013-09-28 17:30:00,
2013-09-28 12:42:00,83.5,77.1,29.98,SE,138,11.0,20.0,81,0.00,,,0.00,Wunderground v.1.15,2013-09-28 17:42:00,
2013-09-28 12:48:00,83.3,76.5,29.98,ESE,114,11.0,20.0,80,0.00,,,0.00,Wunderground v.1.15,2013-09-28 17:48:00,
2013-09-28 12:54:00,83.2,76.4,29.98,East,80,11.0,20.0,80,0.00,,,0.00,Wunderground v.1.15,2013-09-28 17:54:00,
2013-09-28 12:59:00,83.2,76.8,29.98,SE,142,10.0,20.0,81,0.00,,,0.00,Wunderground v.1.15,2013-09-28 17:59:00,
2013-09-28 13:04:00,83.2,76.8,29.98,WNW,294,10.0,20.0,81,0.00,,,0.00,Wunderground v.1.15,2013-09-28 18:04:00,
2013-09-28 13:09:00,83.2,76.8,29.98,East,97,11.0,20.0,81,0.00,,,0.00,Wunderground v.1.15,2013-09-28 18:09:00,
2013-09-28 13:14:00,83.2,76.8,29.98,SE,131,11.0,20.0,81,0.00,,,0.00,Wunderground v.1.15,2013-09-28 18:14:00,
2013-09-28 13:20:00,83.0,76.6,29.98,ESE,115,11.0,11.0,81,0.00,,,0.00,Wunderground v.1.15,2013-09-28 18:20:00,
2013-09-28 13:25:00,82.9,76.5,29.97,ESE,108,11.0,20.0,81,0.00,,,0.00,Wunderground v.1.15,2013-09-28 18:25:00,
2013-09-28 13:31:00,82.9,76.8,29.97,ESE,110,10.0,20.0,82,0.00,,,0.00,Wunderground v.1.15,2013-09-28 18:31:00,
2013-09-28 13:37:00,82.9,76.5,29.97,East,87,11.0,20.0,81,0.00,,,0.00,Wunderground v.1.15,2013-09-28 18:37:00,
2013-09-28 13:42:00,83.0,76.9,29.97,SE,144,11.0,20.0,82,0.00,,,0.00,Wunderground v.1.15,2013-09-28 18:42:00,
2013-09-28 13:47:00,83.0,76.6,29.97,SSE,155,10.0,20.0,81,0.00,,,0.00,Wunderground v.1.15,2013-09-28 18:47:00,
2013-09-28 13:52:00,83.3,76.9,29.97,ENE,69,10.0,20.0,81,0.00,,,0.00,Wunderground v.1.15,2013-09-28 18:52:00,
2013-09-28 13:58:00,83.5,77.1,29.96,ESE,105,9.0,20.0,81,0.00,,,0.00,Wunderground v.1.15,2013-09-28 18:58:00,
2013-09-28 14:03:00,83.5,77.1,29.97,ESE,117,10.0,20.0,81,0.00,,,0.00,Wunderground v.1.15,2013-09-28 19:03:00,
2013-09-28 14:08:00,83.3,76.9,29.97,SSE,148,10.0,20.0,81,0.00,,,0.00,Wunderground v.1.15,2013-09-28 19:08:00,
2013-09-28 14:13:00,83.1,76.7,29.97,SE,143,10.0,20.0,81,0.00,,,0.00,Wunderground v.1.15,2013-09-28 19:13:00,
2013-09-28 14:18:00,83.0,76.9,29.97,ESE,110,10.0,20.0,82,0.00,,,0.00,Wunderground v.1.15,2013-09-28 19:18:00,
2013-09-28 14:24:00,82.9,76.8,29.96,ENE,70,9.0,20.0,82,0.00,,,0.00,Wunderground v.1.15,2013-09-28 19:24:00,
2013-09-28 14:29:00,82.9,76.8,29.96,SE,136,8.0,20.0,82,0.00,,,0.00,Wunderground v.1.15,2013-09-28 19:29:00,
2013-09-28 14:34:00,82.8,76.7,29.95,SE,139,9.0,20.0,82,0.00,,,0.00,Wunderground v.1.15,2013-09-28 19:34:00,
2013-09-28 14:39:00,82.3,76.6,29.95,ENE,65,9.0,20.0,83,0.00,,,0.00,Wunderground v.1.15,2013-09-28 19:39:00,
2013-09-28 14:44:00,82.3,76.6,29.95,East,91,9.0,20.0,83,0.00,,,0.00,Wunderground v.1.15,2013-09-28 19:44:00,
2013-09-28 14:50:00,82.5,76.8,29.95,SSE,147,10.0,10.0,83,0.00,,,0.00,Wunderground v.1.15,2013-09-28 19:50:00,
2013-09-28 14:55:00,82.5,76.8,29.95,East,99,11.0,20.0,83,0.00,,,0.00,Wunderground v.1.15,2013-09-28 19:55:00,
2013-09-28 15:00:00,82.5,76.8,29.95,East,89,11.0,11.0,83,0.00,,,0.00,Wunderground v.1.15,2013-09-28 20:00:00,
2013-09-28 15:05:00,82.6,76.5,29.95,SE,141,11.0,20.0,82,0.00,,,0.00,Wunderground v.1.15,2013-09-28 20:05:00,
2013-09-28 15:10:00,82.6,76.9,29.95,ESE,115,10.0,10.0,83,0.00,,,0.00,Wunderground v.1.15,2013-09-28 20:10:00,
2013-09-28 15:16:00,82.4,76.7,29.95,ESE,123,10.0,20.0,83,0.00,,,0.00,Wunderground v.1.15,2013-09-28 20:16:00,
2013-09-28 15:21:00,81.9,76.6,29.95,SE,146,10.0,20.0,84,0.00,,,0.00,Wunderground v.1.15,2013-09-28 20:21:00,
2013-09-28 15:26:00,81.8,76.5,29.94,ESE,109,9.0,20.0,84,0.00,,,0.00,Wunderground v.1.15,2013-09-28 20:26:00,
2013-09-28 15:31:00,81.7,76.4,29.94,SE,128,8.0,20.0,84,0.00,,,0.00,Wunderground v.1.15,2013-09-28 20:31:00,
2013-09-28 15:36:00,81.4,76.1,29.94,East,98,9.0,20.0,84,0.00,,,0.00,Wunderground v.1.15,2013-09-28 20:36:00,
2013-09-28 15:42:00,81.7,76.7,29.94,SE,128,8.0,20.0,85,0.00,,,0.00,Wunderground v.1.15,2013-09-28 20:42:00,
2013-09-28 15:48:00,82.0,77.0,29.94,South,176,7.0,20.0,85,0.00,,,0.00,Wunderground v.1.15,2013-09-28 20:48:00,
2013-09-28 15:53:00,81.6,76.6,29.94,SSE,150,7.0,20.0,85,0.00,,,0.00,Wunderground v.1.15,2013-09-28 20:53:00,
2013-09-28 15:59:00,81.2,76.6,29.94,ESE,106,7.0,20.0,86,0.00,,,0.00,Wunderground v.1.15,2013-09-28 20:59:00,
2013-09-28 16:04:00,81.1,76.5,29.94,SE,145,8.0,20.0,86,0.00,,,0.00,Wunderground v.1.15,2013-09-28 21:04:00,
2013-09-28 16:10:00,81.2,76.3,29.94,ENE,76,9.0,9.0,85,0.00,,,0.00,Wunderground v.1.15,2013-09-28 21:10:00,
2013-09-28 16:15:00,81.4,76.5,29.94,East,89,8.0,20.0,85,0.00,,,0.00,Wunderground v.1.15,2013-09-28 21:15:00,
2013-09-28 16:20:00,81.6,76.3,29.94,ESE,103,7.0,20.0,84,0.00,,,0.00,Wunderground v.1.15,2013-09-28 21:20:00,
2013-09-28 16:25:00,81.7,76.4,29.94,ESE,104,7.0,20.0,84,0.00,,,0.00,Wunderground v.1.15,2013-09-28 21:25:00,
2013-09-28 16:30:00,81.8,76.5,29.94,East,84,7.0,20.0,84,0.00,,,0.00,Wunderground v.1.15,2013-09-28 21:30:00,
2013-09-28 16:36:00,81.9,76.6,29.94,East,86,7.0,20.0,84,0.00,,,0.00,Wunderground v.1.15,2013-09-28 21:36:00,
2013-09-28 16:41:00,82.0,77.0,29.94,ESE,110,7.0,20.0,85,0.00,,,0.00,Wunderground v.1.15,2013-09-28 21:41:00,
2013-09-28 16:46:00,81.9,76.9,29.94,SE,144,7.0,20.0,85,0.00,,,0.00,Wunderground v.1.15,2013-09-28 21:46:00,
2013-09-28 16:51:00,81.7,76.7,29.94,ESE,114,7.0,20.0,85,0.00,,,0.00,Wunderground v.1.15,2013-09-28 21:51:00,
2013-09-28 16:57:00,82.1,76.8,29.93,SE,134,7.0,20.0,84,0.00,,,0.00,Wunderground v.1.15,2013-09-28 21:57:00,
2013-09-28 17:02:00,82.3,77.0,29.93,SE,146,7.0,20.0,84,0.00,,,0.01,Wunderground v.1.15,2013-09-28 22:02:00,
2013-09-28 17:07:00,82.3,76.6,29.93,SSE,150,9.0,20.0,83,0.00,,,0.01,Wunderground v.1.15,2013-09-28 22:07:00,
2013-09-28 17:12:00,82.2,76.9,29.93,SSE,162,9.0,20.0,84,0.00,,,0.01,Wunderground v.1.15,2013-09-28 22:12:00,
2013-09-28 17:18:00,82.1,76.8,29.93,East,100,8.0,20.0,84,0.00,,,0.01,Wunderground v.1.15,2013-09-28 22:18:00,
2013-09-28 17:23:00,82.1,76.8,29.93,ESE,114,8.0,20.0,84,0.00,,,0.01,Wunderground v.1.15,2013-09-28 22:23:00,
2013-09-28 17:28:00,82.6,77.3,29.93,SE,124,8.0,20.0,84,0.00,,,0.01,Wunderground v.1.15,2013-09-28 22:28:00,
2013-09-28 17:34:00,82.7,77.0,29.93,SE,133,10.0,20.0,83,0.00,,,0.01,Wunderground v.1.15,2013-09-28 22:34:00,
2013-09-28 17:39:00,82.7,77.0,29.93,SE,128,10.0,20.0,83,0.00,,,0.01,Wunderground v.1.15,2013-09-28 22:39:00,
2013-09-28 17:44:00,82.8,77.1,29.93,ESE,115,10.0,20.0,83,0.00,,,0.01,Wunderground v.1.15,2013-09-28 22:44:00,
2013-09-28 17:49:00,82.7,76.6,29.93,ENE,70,10.0,20.0,82,0.00,,,0.01,Wunderground v.1.15,2013-09-28 22:49:00,
2013-09-28 17:54:00,82.7,77.0,29.92,East,98,9.0,20.0,83,0.00,,,0.01,Wunderground v.1.15,2013-09-28 22:54:00,
2013-09-28 17:59:00,82.6,76.5,29.93,South,176,10.0,20.0,82,0.00,,,0.01,Wunderground v.1.15,2013-09-28 22:59:00,
2013-09-28 18:04:00,82.5,76.4,29.93,East,97,10.0,20.0,82,0.00,,,0.01,Wunderground v.1.15,2013-09-28 23:04:00,
2013-09-28 18:10:00,82.5,76.4,29.93,ESE,118,9.0,9.0,82,0.00,,,0.01,Wunderground v.1.15,2013-09-28 23:10:00,
2013-09-28 18:15:00,82.5,77.2,29.93,NE,46,9.0,20.0,84,0.00,,,0.01,Wunderground v.1.15,2013-09-28 23:15:00,
2013-09-28 18:20:00,82.5,76.8,29.94,East,98,9.0,20.0,83,0.00,,,0.01,Wunderground v.1.15,2013-09-28 23:20:00,
2013-09-28 18:25:00,82.5,77.2,29.94,SSE,149,9.0,20.0,84,0.00,,,0.01,Wunderground v.1.15,2013-09-28 23:25:00,
2013-09-28 18:30:00,82.4,76.7,29.94,ENE,78,9.0,9.0,83,0.00,,,0.01,Wunderground v.1.15,2013-09-28 23:30:00,
2013-09-28 18:35:00,82.5,77.2,29.94,SE,126,8.0,20.0,84,0.00,,,0.01,Wunderground v.1.15,2013-09-28 23:35:00,
2013-09-28 18:41:00,82.3,77.0,29.94,East,84,8.0,20.0,84,0.00,,,0.01,Wunderground v.1.15,2013-09-28 23:41:00,
2013-09-28 18:46:00,82.3,76.6,29.94,ENE,74,9.0,20.0,83,0.00,,,0.01,Wunderground v.1.15,2013-09-28 23:46:00,
2013-09-28 18:51:00,82.3,76.6,29.94,East,98,9.0,20.0,83,0.00,,,0.01,Wunderground v.1.15,2013-09-28 23:51:00,
2013-09-28 18:56:00,82.3,76.6,29.94,ESE,123,9.0,20.0,83,0.00,,,0.01,Wunderground v.1.15,2013-09-28 23:56:00,
2013-09-28 19:01:00,82.3,76.6,29.94,East,99,9.0,20.0,83,0.00,,,0.01,Wunderground v.1.15,2013-09-29 00:01:00,
2013-09-28 19:07:00,82.2,76.9,29.94,ENE,76,8.0,20.0,84,0.00,,,0.01,Wunderground v.1.15,2013-09-29 00:07:00,
2013-09-28 19:12:00,82.3,77.0,29.95,East,94,8.0,20.0,84,0.00,,,0.01,Wunderground v.1.15,2013-09-29 00:12:00,
2013-09-28 19:17:00,82.3,77.0,29.95,SE,126,8.0,20.0,84,0.00,,,0.01,Wunderground v.1.15,2013-09-29 00:17:00,
2013-09-28 19:22:00,82.2,77.2,29.95,SE,146,7.0,20.0,85,0.00,,,0.01,Wunderground v.1.15,2013-09-29 00:22:00,
2013-09-28 19:27:00,82.0,77.4,29.95,ESE,121,6.0,20.0,86,0.00,,,0.01,Wunderground v.1.15,2013-09-29 00:27:00,
2013-09-28 19:33:00,81.8,77.5,29.95,SE,131,6.0,20.0,87,0.00,,,0.01,Wunderground v.1.15,2013-09-29 00:33:00,
2013-09-28 19:38:00,81.6,77.4,29.96,ESE,112,7.0,20.0,87,0.00,,,0.01,Wunderground v.1.15,2013-09-29 00:38:00,
2013-09-28 19:43:00,81.5,77.6,29.96,SSE,154,6.0,20.0,88,0.00,,,0.01,Wunderground v.1.15,2013-09-29 00:43:00,
2013-09-28 19:48:00,81.2,77.3,29.96,SE,139,6.0,20.0,88,0.00,,,0.01,Wunderground v.1.15,2013-09-29 00:48:00,
2013-09-28 19:53:00,81.1,77.2,29.97,ENE,69,7.0,20.0,88,0.00,,,0.01,Wunderground v.1.15,2013-09-29 00:53:00,
2013-09-28 19:59:00,81.1,77.2,29.97,ESE,123,8.0,20.0,88,0.00,,,0.01,Wunderground v.1.15,2013-09-29 00:59:00,
2013-09-28 20:04:00,81.2,77.3,29.97,ESE,116,8.0,20.0,88,0.00,,,0.01,Wunderground v.1.15,2013-09-29 01:04:00,
2013-09-28 20:09:00,81.1,77.2,29.97,SSE,156,8.0,20.0,88,0.00,,,0.01,Wunderground v.1.15,2013-09-29 01:09:00,
2013-09-28 20:14:00,81.0,77.1,29.97,East,85,9.0,20.0,88,0.00,,,0.01,Wunderground v.1.15,2013-09-29 01:14:00,
2013-09-28 20:19:00,81.0,77.1,29.97,ESE,110,9.0,20.0,88,0.00,,,0.01,Wunderground v.1.15,2013-09-29 01:19:00,
2013-09-28 20:25:00,80.8,76.9,29.97,ESE,118,9.0,20.0,88,0.00,,,0.01,Wunderground v.1.15,2013-09-29 01:25:00,
2013-09-28 20:30:00,80.8,77.3,29.97,ESE,110,9.0,20.0,89,0.00,,,0.01,Wunderground v.1.15,2013-09-29 01:30:00,
2013-09-28 20:35:00,80.7,77.2,29.97,SSE,155,8.0,20.0,89,0.00,,,0.01,Wunderground v.1.15,2013-09-29 01:35:00,
2013-09-28 20:41:00,80.5,77.3,29.97,SSE,156,8.0,20.0,90,0.00,,,0.01,Wunderground v.1.15,2013-09-29 01:41:00,
2013-09-28 20:46:00,80.4,77.2,29.97,ESE,109,7.0,20.0,90,0.00,,,0.01,Wunderground v.1.15,2013-09-29 01:46:00,
2013-09-28 20:51:00,80.4,77.5,29.98,East,89,8.0,20.0,91,0.00,,,0.01,Wunderground v.1.15,2013-09-29 01:51:00,
2013-09-28 20:57:00,80.3,77.4,29.98,East,97,7.0,20.0,91,0.00,,,0.01,Wunderground v.1.15,2013-09-29 01:57:00,
2013-09-28 21:02:00,80.3,77.4,29.98,ESE,120,6.0,20.0,91,0.00,,,0.01,Wunderground v.1.15,2013-09-29 02:02:00,
2013-09-28 21:07:00,80.1,77.2,29.98,SSE,149,6.0,20.0,91,0.00,,,0.01,Wunderground v.1.15,2013-09-29 02:07:00,
2013-09-28 21:12:00,79.7,76.5,29.99,East,98,6.0,20.0,90,0.00,,,0.01,Wunderground v.1.15,2013-09-29 02:12:00,
2013-09-28 21:17:00,79.8,76.6,29.99,SE,128,7.0,20.0,90,0.00,,,0.01,Wunderground v.1.15,2013-09-29 02:17:00,
2013-09-28 21:22:00,79.7,76.5,29.99,ESE,112,7.0,20.0,90,0.00,,,0.01,Wunderground v.1.15,2013-09-29 02:22:00,
2013-09-28 21:28:00,79.7,76.2,29.99,SE,127,7.0,20.0,89,0.00,,,0.01,Wunderground v.1.15,2013-09-29 02:28:00,
2013-09-28 21:33:00,80.0,76.5,29.99,South,173,7.0,20.0,89,0.00,,,0.01,Wunderground v.1.15,2013-09-29 02:33:00,
2013-09-28 21:38:00,80.0,76.1,30.00,ESE,120,7.0,20.0,88,0.00,,,0.01,Wunderground v.1.15,2013-09-29 02:38:00,
2013-09-28 21:43:00,80.1,76.2,30.00,SSE,150,7.0,20.0,88,0.00,,,0.01,Wunderground v.1.15,2013-09-29 02:43:00,
2013-09-28 21:48:00,80.1,75.9,30.00,East,79,7.0,20.0,87,0.00,,,0.01,Wunderground v.1.15,2013-09-29 02:48:00,
2013-09-28 21:53:00,80.1,75.9,29.99,East,79,7.0,20.0,87,0.00,,,0.01,Wunderground v.1.15,2013-09-29 02:53:00,
2013-09-28 21:58:00,80.2,76.0,29.99,East,85,7.0,20.0,87,0.00,,,0.01,Wunderground v.1.15,2013-09-29 02:58:00,
2013-09-28 22:04:00,80.5,75.9,29.99,SE,129,7.0,20.0,86,0.00,,,0.01,Wunderground v.1.15,2013-09-29 03:04:00,
2013-09-28 22:09:00,80.7,76.1,29.99,East,91,7.0,20.0,86,0.00,,,0.01,Wunderground v.1.15,2013-09-29 03:09:00,
2013-09-28 22:14:00,80.8,76.2,29.99,East,96,6.0,20.0,86,0.00,,,0.01,Wunderground v.1.15,2013-09-29 03:14:00,
2013-09-28 22:19:00,80.7,76.5,29.99,SE,124,5.0,20.0,87,0.00,,,0.01,Wunderground v.1.15,2013-09-29 03:19:00,
2013-09-28 22:25:00,80.6,76.4,29.99,SE,127,5.0,20.0,87,0.00,,,0.01,Wunderground v.1.15,2013-09-29 03:25:00,
2013-09-28 22:30:00,80.5,76.3,29.99,SE,134,6.0,20.0,87,0.00,,,0.01,Wunderground v.1.15,2013-09-29 03:30:00,
2013-09-28 22:36:00,80.6,76.4,29.99,East,93,7.0,20.0,87,0.00,,,0.01,Wunderground v.1.15,2013-09-29 03:36:00,
2013-09-28 22:42:00,80.7,76.8,29.99,SE,143,6.0,20.0,88,0.00,,,0.01,Wunderground v.1.15,2013-09-29 03:42:00,
2013-09-28 22:48:00,80.7,76.8,29.99,ESE,107,7.0,20.0,88,0.00,,,0.01,Wunderground v.1.15,2013-09-29 03:48:00,
2013-09-28 22:53:00,80.7,76.8,29.99,ESE,108,7.0,20.0,88,0.00,,,0.01,Wunderground v.1.15,2013-09-29 03:53:00,
2013-09-28 22:58:00,80.7,76.8,29.99,ESE,113,7.0,20.0,88,0.00,,,0.01,Wunderground v.1.15,2013-09-29 03:58:00,
2013-09-28 23:01:00,80.7,76.8,29.99,East,91,8.0,20.0,88,0.00,,,0.01,Wunderground v.1.15,2013-09-29 04:01:00,
2013-09-28 23:03:00,80.7,76.8,29.99,ESE,110,8.0,20.0,88,0.00,,,0.01,Wunderground v.1.15,2013-09-29 04:03:00,
2013-09-28 23:04:00,80.7,76.8,29.99,ESE,115,8.0,20.0,88,0.00,,,0.01,Wunderground v.1.15,2013-09-29 04:04:00,
2013-09-28 23:07:00,80.7,76.8,29.98,ESE,113,8.0,20.0,88,0.00,,,0.01,Wunderground v.1.15,2013-09-29 04:07:00,
2013-09-28 23:11:00,80.8,77.3,29.98,ESE,116,9.0,20.0,89,0.00,,,0.01,Wunderground v.1.15,2013-09-29 04:11:00,
2013-09-28 23:16:00,80.8,77.3,29.98,ESE,118,9.0,20.0,89,0.00,,,0.01,Wunderground v.1.15,2013-09-29 04:16:00,
2013-09-28 23:21:00,81.0,77.8,29.98,ENE,73,9.0,20.0,90,0.00,,,0.01,Wunderground v.1.15,2013-09-29 04:21:00,
2013-09-28 23:26:00,81.0,77.4,29.98,ESE,123,9.0,20.0,89,0.00,,,0.01,Wunderground v.1.15,2013-09-29 04:26:00,
2013-09-28 23:31:00,81.2,77.6,29.98,East,91,9.0,20.0,89,0.00,,,0.01,Wunderground v.1.15,2013-09-29 04:31:00,
2013-09-28 23:37:00,81.2,77.0,29.98,SSE,154,8.0,20.0,87,0.00,,,0.01,Wunderground v.1.15,2013-09-29 04:37:00,
2013-09-28 23:42:00,81.4,76.5,29.98,ESE,105,8.0,20.0,85,0.00,,,0.01,Wunderground v.1.15,2013-09-29 04:42:00,
2013-09-28 23:47:00,81.5,77.3,29.98,ESE,116,7.0,20.0,87,0.00,,,0.01,Wunderground v.1.15,2013-09-29 04:47:00,
2013-09-28 23:52:00,81.4,77.2,29.98,East,80,7.0,20.0,87,0.00,,,0.01,Wunderground v.1.15,2013-09-29 04:52:00,
2013-09-28 23:57:00,81.3,77.1,29.98,ENE,75,6.0,20.0,87,0.00,,,0.01,Wunderground v.1.15,2013-09-29 04:57:00,